APJ366 RJFF-RJAA

Flight info

Callsign APJ366
Flight time N/A
Altitude 39000
Route CARSE Y81 RUTAS
Aircraft A320/M-SDE3FGHIRWY/LB1

Departure

Time 2026-04-28 11:36
Airport Fukuoka Airport (RJFF)

Arrival

Time N/A
Airport Narita International Airport (RJAA)
Time Latitude Longitude Altitude Speed Heading
2026-04-28 11:24 33.59948 130.44567 26 ft 0 kts 60°
2026-04-28 11:30 33.59947 130.44566 26 ft 2 kts 60°
2026-04-28 11:31 33.59935 130.44540 31 ft 3 kts 60°
2026-04-28 11:31 33.59925 130.44517 31 ft 4 kts 77°
2026-04-28 11:31 33.59926 130.44488 31 ft 4 kts 129°
2026-04-28 11:31 33.59939 130.44474 27 ft 0 kts 150°
2026-04-28 11:33 33.59921 130.44475 31 ft 5 kts 195°
2026-04-28 11:34 33.59897 130.44436 29 ft 6 kts 241°
2026-04-28 11:34 33.59872 130.44392 29 ft 7 kts 225°
2026-04-28 11:34 33.59794 130.44356 27 ft 15 kts 194°
2026-04-28 11:34 33.59692 130.44328 27 ft 14 kts 181°
2026-04-28 11:35 33.59611 130.44376 30 ft 13 kts 150°
2026-04-28 11:35 33.59387 130.44526 27 ft 74 kts 150°
2026-04-28 11:35 33.58729 130.44974 33 ft 140 kts 150°
2026-04-28 11:35 33.57757 130.45636 291 ft 166 kts 152°
2026-04-28 11:36 33.56754 130.46323 988 ft 165 kts 154°
2026-04-28 11:36 33.55737 130.46964 1727 ft 165 kts 156°
2026-04-28 11:36 33.54691 130.47610 2192 ft 181 kts 156°
2026-04-28 11:36 33.53501 130.48342 2551 ft 204 kts 156°
2026-04-28 11:37 33.52164 130.49160 2884 ft 229 kts 156°
2026-04-28 11:37 33.50661 130.50084 3340 ft 254 kts 156°
2026-04-28 11:37 33.49037 130.51087 3977 ft 268 kts 156°
2026-04-28 11:37 33.47377 130.52120 4855 ft 273 kts 156°
2026-04-28 11:38 33.45662 130.53193 5714 ft 280 kts 156°
2026-04-28 11:38 33.43919 130.54277 6590 ft 285 kts 157°
2026-04-28 11:38 33.42141 130.55379 7422 ft 290 kts 158°
2026-04-28 11:38 33.40335 130.56500 8289 ft 294 kts 158°
2026-04-28 11:39 33.38509 130.57632 9172 ft 298 kts 158°
2026-04-28 11:39 33.36655 130.58778 10038 ft 302 kts 158°
2026-04-28 11:39 33.34728 130.59961 10451 ft 322 kts 158°
2026-04-28 11:39 33.32662 130.61226 10718 ft 345 kts 158°
2026-04-28 11:40 33.30454 130.62589 11003 ft 368 kts 156°
2026-04-28 11:40 33.28314 130.64382 11612 ft 383 kts 143°
2026-04-28 11:40 33.26477 130.66736 12352 ft 392 kts 131°
2026-04-28 11:40 33.25040 130.69549 13051 ft 403 kts 118°
2026-04-28 11:41 33.24041 130.72664 13802 ft 408 kts 112°
2026-04-28 11:41 33.23099 130.75882 14414 ft 415 kts 113°
2026-04-28 11:41 33.22132 130.79140 14965 ft 418 kts 113°
2026-04-28 11:41 33.21144 130.82442 15519 ft 425 kts 113°
2026-04-28 11:42 33.20148 130.85788 16136 ft 430 kts 113°
2026-04-28 11:42 33.19146 130.89166 16723 ft 436 kts 113°
2026-04-28 11:42 33.18141 130.92608 17287 ft 442 kts 111°
2026-04-28 11:42 33.17337 130.96187 17837 ft 449 kts 108°
2026-04-28 11:43 33.16553 130.99818 18376 ft 454 kts 108°
2026-04-28 11:43 33.15758 131.03492 18851 ft 459 kts 108°
2026-04-28 11:43 33.14953 131.07192 19366 ft 463 kts 108°
2026-04-28 11:43 33.14137 131.10918 19864 ft 466 kts 108°
2026-04-28 11:44 33.13308 131.14680 20354 ft 469 kts 108°
2026-04-28 11:44 33.12475 131.18457 20836 ft 473 kts 108°
2026-04-28 11:44 33.11636 131.22264 21289 ft 476 kts 108°
2026-04-28 11:44 33.10789 131.26099 21720 ft 480 kts 108°
2026-04-28 11:45 33.09938 131.29961 22175 ft 483 kts 108°
2026-04-28 11:45 33.09094 131.33847 22582 ft 487 kts 106°
2026-04-28 11:45 33.08565 131.37862 22998 ft 494 kts 97°
2026-04-28 11:45 33.08533 131.41972 23388 ft 498 kts 87°
2026-04-28 11:46 33.08976 131.46091 23739 ft 503 kts 81°
2026-04-28 11:46 33.09525 131.50211 24068 ft 505 kts 81°
2026-04-28 11:46 33.10073 131.54364 24389 ft 508 kts 81°
2026-04-28 11:46 33.10612 131.58479 24695 ft 510 kts 81°
2026-04-28 11:47 33.11156 131.62663 25013 ft 512 kts 82°
2026-04-28 11:47 33.11700 131.66873 25319 ft 515 kts 82°
2026-04-28 11:47 33.12244 131.71105 25635 ft 517 kts 82°
2026-04-28 11:47 33.12789 131.75347 25949 ft 519 kts 82°
2026-04-28 11:48 33.13336 131.79621 26243 ft 522 kts 82°
2026-04-28 11:48 33.13886 131.83913 26541 ft 524 kts 82°
2026-04-28 11:48 33.14440 131.88219 26833 ft 526 kts 82°
2026-04-28 11:48 33.14998 131.92544 27118 ft 528 kts 82°
2026-04-28 11:49 33.15555 131.96888 27393 ft 531 kts 82°
2026-04-28 11:49 33.16113 132.01251 27659 ft 532 kts 82°
2026-04-28 11:49 33.16669 132.05623 27919 ft 535 kts 82°
2026-04-28 11:49 33.17224 132.10019 28175 ft 537 kts 82°
2026-04-28 11:50 33.17777 132.14436 28406 ft 539 kts 82°
2026-04-28 11:50 33.18329 132.18855 28635 ft 540 kts 82°
2026-04-28 11:50 33.18884 132.23295 28885 ft 541 kts 82°
2026-04-28 11:50 33.19440 132.27738 29185 ft 540 kts 82°
2026-04-28 11:51 33.19993 132.32174 29494 ft 540 kts 82°
2026-04-28 11:51 33.20543 132.36609 29805 ft 540 kts 82°
2026-04-28 11:51 33.21095 132.41043 30112 ft 540 kts 82°
2026-04-28 11:51 33.21637 132.45415 30375 ft 539 kts 82°
2026-04-28 11:52 33.22185 132.49838 30652 ft 539 kts 82°
2026-04-28 11:52 33.22731 132.54269 30946 ft 538 kts 82°
2026-04-28 11:52 33.23271 132.58682 31223 ft 537 kts 82°
2026-04-28 11:52 33.23807 132.63087 31525 ft 536 kts 82°
2026-04-28 11:53 33.24343 132.67486 31810 ft 535 kts 82°
2026-04-28 11:53 33.24876 132.71895 32063 ft 535 kts 82°
2026-04-28 11:53 33.25226 132.74805 32268 ft 534 kts 82°
2026-04-28 11:53 33.25752 132.79189 32567 ft 533 kts 82°
2026-04-28 11:54 33.26456 132.85048 32969 ft 532 kts 82°
2026-04-28 11:54 33.26804 132.87944 33172 ft 531 kts 82°
2026-04-28 11:54 33.27328 132.92315 33472 ft 531 kts 82°
2026-04-28 11:54 33.27848 132.96673 33770 ft 530 kts 82°
2026-04-28 11:55 33.28365 133.01027 34063 ft 528 kts 82°
2026-04-28 11:55 33.28877 133.05370 34326 ft 528 kts 82°
2026-04-28 11:55 33.29388 133.09715 34579 ft 527 kts 82°
2026-04-28 11:55 33.29897 133.14045 34823 ft 526 kts 82°
2026-04-28 11:56 33.30404 133.18379 35064 ft 526 kts 82°
2026-04-28 11:56 33.30908 133.22697 35306 ft 525 kts 82°
2026-04-28 11:56 33.31410 133.27025 35548 ft 524 kts 82°
2026-04-28 11:56 33.31910 133.31332 35779 ft 523 kts 82°
2026-04-28 11:57 33.32413 133.35641 35998 ft 522 kts 82°
2026-04-28 11:57 33.32908 133.39892 36202 ft 522 kts 82°
2026-04-28 11:57 33.33405 133.44183 36411 ft 521 kts 82°
2026-04-28 11:57 33.33897 133.48469 36615 ft 520 kts 82°
2026-04-28 11:58 33.34389 133.52763 36816 ft 520 kts 82°
2026-04-28 11:58 33.34877 133.57054 37016 ft 519 kts 82°
2026-04-28 11:58 33.35361 133.61327 37215 ft 519 kts 82°
2026-04-28 11:58 33.35845 133.65598 37398 ft 518 kts 82°
2026-04-28 11:59 33.36329 133.69868 37571 ft 518 kts 82°
2026-04-28 11:59 33.36810 133.74136 37749 ft 518 kts 82°
2026-04-28 11:59 33.37291 133.78404 37918 ft 517 kts 82°
2026-04-28 11:59 33.37769 133.82661 38102 ft 517 kts 82°
2026-04-28 12:00 33.38245 133.86927 38269 ft 517 kts 82°
2026-04-28 12:00 33.38716 133.91181 38415 ft 517 kts 82°
2026-04-28 12:00 33.39186 133.95441 38569 ft 516 kts 82°
2026-04-28 12:00 33.39654 133.99703 38694 ft 516 kts 82°
2026-04-28 12:01 33.40123 134.03961 38820 ft 516 kts 82°
2026-04-28 12:01 33.40434 134.06775 38936 ft 516 kts 82°
2026-04-28 12:01 33.40740 134.09397 38881 ft 512 kts 82°
2026-04-28 12:02 33.41261 134.13545 38985 ft 512 kts 81°
2026-04-28 12:02 33.41733 134.17771 38998 ft 515 kts 82°
2026-04-28 12:02 33.42595 134.26313 39001 ft 517 kts 83°
2026-04-28 12:03 33.43463 134.34870 39001 ft 518 kts 82°
2026-04-28 12:03 33.44376 134.43419 38996 ft 518 kts 82°
2026-04-28 12:04 33.45306 134.51973 38999 ft 518 kts 82°
2026-04-28 12:04 33.46220 134.60525 39001 ft 518 kts 82°
2026-04-28 12:05 33.47123 134.69093 38999 ft 518 kts 82°
2026-04-28 12:05 33.48010 134.77663 39001 ft 519 kts 83°
2026-04-28 12:06 33.48883 134.86185 39004 ft 519 kts 83°
2026-04-28 12:06 33.49733 134.94491 39011 ft 519 kts 83°
2026-04-28 12:07 33.50566 135.02657 39011 ft 519 kts 82°
2026-04-28 12:07 33.51442 135.11234 39003 ft 519 kts 82°
2026-04-28 12:08 33.52317 135.19812 39001 ft 518 kts 83°
2026-04-28 12:08 33.53179 135.28390 38996 ft 518 kts 83°
2026-04-28 12:09 33.54028 135.36966 38992 ft 517 kts 83°
2026-04-28 12:09 33.54871 135.45522 38991 ft 517 kts 83°
2026-04-28 12:10 33.55710 135.54075 39003 ft 517 kts 83°
2026-04-28 12:10 33.56548 135.62643 39003 ft 517 kts 83°
2026-04-28 12:11 33.57374 135.71144 39012 ft 517 kts 83°
2026-04-28 12:11 33.58197 135.79722 39012 ft 518 kts 83°
2026-04-28 12:12 33.59013 135.88308 39007 ft 518 kts 83°
2026-04-28 12:12 33.59823 135.96897 39006 ft 518 kts 83°
2026-04-28 12:13 33.60626 136.05479 38999 ft 518 kts 83°
2026-04-28 12:13 33.61429 136.14070 38997 ft 518 kts 83°
2026-04-28 12:14 33.62229 136.22676 38993 ft 519 kts 83°
2026-04-28 12:14 33.63019 136.31226 38988 ft 519 kts 83°
2026-04-28 12:15 33.63805 136.39847 38995 ft 520 kts 83°
2026-04-28 12:15 33.64579 136.48482 38997 ft 520 kts 83°
2026-04-28 12:16 33.65358 136.57123 38998 ft 521 kts 83°
2026-04-28 12:16 33.66122 136.65753 39004 ft 521 kts 83°
2026-04-28 12:17 33.66887 136.74402 39003 ft 521 kts 83°
2026-04-28 12:17 33.67638 136.83050 39008 ft 521 kts 84°
2026-04-28 12:18 33.68392 136.91699 39011 ft 521 kts 83°
2026-04-28 12:18 33.69141 137.00351 39010 ft 521 kts 84°
2026-04-28 12:19 33.69874 137.08999 39013 ft 521 kts 84°
2026-04-28 12:19 33.70442 137.17663 39013 ft 520 kts 88°
2026-04-28 12:20 33.70653 137.26343 39013 ft 520 kts 89°
2026-04-28 12:20 33.70791 137.35032 39013 ft 520 kts 89°
2026-04-28 12:21 33.71011 137.43705 39013 ft 520 kts 88°
2026-04-28 12:21 33.71288 137.52389 39015 ft 520 kts 88°
2026-04-28 12:22 33.71541 137.61011 39009 ft 520 kts 88°
2026-04-28 12:22 33.71775 137.69686 39008 ft 520 kts 88°
2026-04-28 12:23 33.72006 137.78357 39010 ft 519 kts 88°
2026-04-28 12:23 33.72224 137.86807 39016 ft 519 kts 88°
2026-04-28 12:24 33.72437 137.95465 39014 ft 519 kts 88°
2026-04-28 12:24 33.72646 138.04128 39012 ft 519 kts 88°
2026-04-28 12:25 33.72860 138.12786 39012 ft 518 kts 89°
2026-04-28 12:25 33.73062 138.21444 39012 ft 518 kts 89°
2026-04-28 12:26 33.73249 138.30098 39016 ft 518 kts 89°
2026-04-28 12:26 33.73430 138.38650 39017 ft 518 kts 89°
2026-04-28 12:27 33.73608 138.47294 39017 ft 517 kts 89°
2026-04-28 12:27 33.73786 138.55929 39016 ft 517 kts 89°
2026-04-28 12:28 33.73956 138.64572 39016 ft 517 kts 89°
2026-04-28 12:28 33.74109 138.73194 39016 ft 516 kts 89°
2026-04-28 12:29 33.74524 138.86115 39014 ft 516 kts 80°
2026-04-28 12:30 33.76452 138.94141 39017 ft 511 kts 62°
2026-04-28 12:30 33.79925 139.01520 39016 ft 507 kts 55°
2026-04-28 12:31 33.83572 139.08784 39011 ft 507 kts 55°
2026-04-28 12:31 33.87192 139.16018 39013 ft 508 kts 55°
2026-04-28 12:32 33.90823 139.23301 39015 ft 508 kts 55°
2026-04-28 12:32 33.94454 139.30595 39014 ft 508 kts 55°
2026-04-28 12:33 33.98078 139.37900 39010 ft 508 kts 55°
2026-04-28 12:33 34.01701 139.45214 39011 ft 508 kts 55°
2026-04-28 12:34 34.05330 139.52530 39014 ft 508 kts 55°
2026-04-28 12:34 34.09338 139.59483 39014 ft 503 kts 46°
2026-04-28 12:35 34.13723 139.66050 39009 ft 503 kts 46°
2026-04-28 12:35 34.18101 139.72643 39011 ft 503 kts 46°
2026-04-28 12:36 34.22473 139.79260 39009 ft 503 kts 46°
2026-04-28 12:36 34.26842 139.85877 39006 ft 504 kts 46°
2026-04-28 12:37 34.31219 139.92512 39002 ft 505 kts 46°
2026-04-28 12:37 34.35589 139.99159 38990 ft 504 kts 46°
2026-04-28 12:38 34.39957 140.05806 38986 ft 505 kts 46°
2026-04-28 12:38 34.44304 140.12439 38988 ft 506 kts 46°
2026-04-28 12:39 34.48315 140.19502 38987 ft 511 kts 54°
2026-04-28 12:39 34.52095 140.26819 38982 ft 511 kts 54°
2026-04-28 12:40 34.55866 140.34139 38973 ft 511 kts 54°
2026-04-28 12:40 34.59637 140.41462 38969 ft 512 kts 54°
2026-04-28 12:41 34.63417 140.48808 38969 ft 513 kts 54°
2026-04-28 12:41 34.67190 140.56167 38965 ft 514 kts 54°
2026-04-28 12:42 34.71689 140.62732 38927 ft 502 kts 36°
2026-04-28 12:42 34.74352 140.65453 38700 ft 496 kts 28°
2026-04-28 12:42 34.77269 140.67564 38432 ft 481 kts 14°
2026-04-28 12:42 34.80396 140.68684 38164 ft 461 kts 358°
2026-04-28 12:43 34.82497 140.68947 37895 ft 455 kts 355°
2026-04-28 12:43 34.85652 140.69260 37229 ft 454 kts 355°
2026-04-28 12:43 34.88799 140.69585 36528 ft 455 kts 355°
2026-04-28 12:43 34.92987 140.70056 35571 ft 456 kts 355°
2026-04-28 12:44 34.96151 140.70440 34815 ft 458 kts 355°
2026-04-28 12:44 34.99332 140.70839 34008 ft 462 kts 356°
2026-04-28 12:44 35.01494 140.71115 33393 ft 464 kts 356°
2026-04-28 12:44 35.05760 140.72005 32201 ft 479 kts
2026-04-28 12:45 35.08960 140.73390 31083 ft 498 kts 15°
2026-04-28 12:45 35.12050 140.75454 29977 ft 516 kts 25°
2026-04-28 12:45 35.14035 140.77088 29036 ft 522 kts 26°
2026-04-28 12:45 35.17089 140.79623 27702 ft 526 kts 27°
2026-04-28 12:46 35.20124 140.82147 26340 ft 530 kts 27°
2026-04-28 12:46 35.23141 140.84662 25036 ft 532 kts 27°
2026-04-28 12:46 35.26198 140.87214 23958 ft 531 kts 27°
2026-04-28 12:46 35.29230 140.89752 22914 ft 526 kts 27°
2026-04-28 12:47 35.32239 140.92270 21985 ft 519 kts 28°
2026-04-28 12:47 35.35199 140.94750 21110 ft 513 kts 28°
2026-04-28 12:47 35.38125 140.97199 20256 ft 507 kts 28°
2026-04-28 12:47 35.41032 140.99598 19331 ft 500 kts 26°
2026-04-28 12:48 35.44142 141.01377 18277 ft 482 kts 12°
2026-04-28 12:48 35.47316 141.02229 16869 ft 455 kts 358°
2026-04-28 12:48 35.50392 141.02170 15508 ft 432 kts 345°
2026-04-28 12:48 35.53245 141.01285 14630 ft 415 kts 332°
2026-04-28 12:49 35.55782 140.99806 14239 ft 395 kts 323°
2026-04-28 12:49 35.57985 140.97893 13693 ft 382 kts 314°
2026-04-28 12:49 35.59988 140.95800 13116 ft 375 kts 314°
2026-04-28 12:49 35.61946 140.93735 12619 ft 366 kts 313°
2026-04-28 12:50 35.63857 140.91709 12084 ft 359 kts 314°
2026-04-28 12:50 35.65707 140.89742 11507 ft 354 kts 314°
2026-04-28 12:50 35.67549 140.87782 11137 ft 343 kts 314°
2026-04-28 12:50 35.69310 140.85912 11020 ft 327 kts 313°
2026-04-28 12:51 35.70994 140.84127 10904 ft 313 kts 313°
2026-04-28 12:51 35.72606 140.82414 10776 ft 299 kts 313°
2026-04-28 12:51 35.74152 140.80772 10656 ft 288 kts 313°
2026-04-28 12:51 35.75640 140.79185 10459 ft 279 kts 313°
2026-04-28 12:52 35.77092 140.77630 10144 ft 276 kts 313°
2026-04-28 12:52 35.78534 140.76083 9803 ft 273 kts 313°
2026-04-28 12:52 35.79967 140.74546 9396 ft 273 kts 313°
2026-04-28 12:52 35.81400 140.73010 8996 ft 273 kts 314°
2026-04-28 12:53 35.82830 140.71475 8607 ft 271 kts 314°
2026-04-28 12:53 35.84253 140.69948 8182 ft 271 kts 314°
2026-04-28 12:53 35.85675 140.68426 7751 ft 270 kts 315°
2026-04-28 12:53 35.87093 140.66909 7327 ft 270 kts 315°
2026-04-28 12:54 35.88488 140.65419 6920 ft 269 kts 315°
2026-04-28 12:54 35.89905 140.63905 6507 ft 269 kts 316°
2026-04-28 12:54 35.91316 140.62397 6093 ft 268 kts 316°
2026-04-28 12:54 35.92718 140.60893 5986 ft 267 kts 316°
2026-04-28 12:55 35.94124 140.59383 5991 ft 269 kts 316°
2026-04-28 12:55 35.95538 140.57867 5988 ft 269 kts 316°
2026-04-28 12:55 35.96904 140.56389 5990 ft 270 kts 313°
2026-04-28 12:55 35.98076 140.54608 5990 ft 267 kts 298°
2026-04-28 12:56 35.98824 140.52532 5990 ft 264 kts 284°
2026-04-28 12:56 35.99274 140.50336 5991 ft 264 kts 282°
2026-04-28 12:56 35.99720 140.48138 5987 ft 265 kts 282°
2026-04-28 12:56 36.00170 140.45933 5986 ft 264 kts 282°
2026-04-28 12:57 36.00614 140.43753 5985 ft 264 kts 283°
2026-04-28 12:57 36.01052 140.41625 5948 ft 248 kts 283°
2026-04-28 12:57 36.01462 140.39622 5812 ft 235 kts 282°
2026-04-28 12:57 36.01848 140.37718 5687 ft 223 kts 282°
2026-04-28 12:58 36.02218 140.35906 5536 ft 213 kts 282°
2026-04-28 12:58 36.02578 140.34130 5092 ft 215 kts 282°
2026-04-28 12:58 36.02943 140.32325 4525 ft 216 kts 283°
2026-04-28 12:58 36.03308 140.30516 3945 ft 218 kts 283°
2026-04-28 12:59 36.03630 140.28692 3385 ft 217 kts 273°
2026-04-28 12:59 36.03619 140.26872 3097 ft 205 kts 269°
2026-04-28 12:59 36.03450 140.25158 2996 ft 201 kts 249°
2026-04-28 12:59 36.02603 140.23800 2989 ft 205 kts 217°
2026-04-28 13:00 36.01252 140.23246 2988 ft 213 kts 183°
2026-04-28 13:00 36.00624 140.23339 2984 ft 217 kts 167°